FW8688 Weather Reports


Display with metric or nautical units.
time (UTC)temp
F
wind
direction
speed
MPH
gust
MPH
rain 1hr
in
rain 24hr
in
rain mn
in
humidity
%
barometer
mb
20260906035804 78 149 4.0 9.0 0.00 0.00 0.00 27 1012.0
20260906035306 78 179 3.0 5.0 0.00 0.00 0.00 28 1012.0
20260906034804 78 155 3.0 5.0 0.00 0.00 0.00 31 1012.2
20260906034303 79 151 3.0 6.0 0.00 0.00 0.00 31 1012.3
20260906033804 80 144 5.0 8.0 0.00 0.00 0.00 29 1012.0
20260906033304 81 141 2.0 6.0 0.00 0.00 0.00 22 1012.0
20260906032804 81 249 2.0 3.0 0.00 0.00 0.00 16 1011.8
20260906032306 81 137 1.0 3.0 0.00 0.00 0.00 17 1011.6
20260906031804 81 153 1.0 6.0 0.00 0.00 0.00 16 1011.6
20260906031304 82 209 5.0 7.0 0.00 0.00 0.00 16 1011.4
20260906030805 82 203 3.0 10.0 0.00 0.00 0.00 16 1011.4
20260906025803 83 202 5.0 12.0 0.00 0.00 0.00 16 1011.2
20260906025306 83 222 8.0 12.0 0.00 0.00 0.00 16 1011.1
20260906024805 83 226 7.0 10.0 0.00 0.00 0.00 16 1010.9
20260906024304 83 214 9.0 13.0 0.00 0.00 0.00 16 1010.6
20260906023804 83 221 7.0 13.0 0.00 0.00 0.00 16 1010.6
20260906022804 84 230 14.0 20.0 0.00 0.00 0.00 16 1010.5
20260906022307 84 222 10.0 18.0 0.00 0.00 0.00 16 1010.5
20260906021804 84 212 9.0 18.0 0.00 0.00 0.00 16 1010.5
20260906021304 84 216 10.0 15.0 0.00 0.00 0.00 16 1010.3
20260906020303 84 217 9.0 18.0 0.00 0.00 0.00 16 1010.3
20260906015804 84 208 9.0 14.0 0.00 0.00 0.00 16 1010.4
20260906015306 84 224 10.0 15.0 0.00 0.00 0.00 16 1010.4
20260906014804 84 220 9.0 13.0 0.00 0.00 0.00 16 1010.4
20260906014304 85 227 7.0 13.0 0.00 0.00 0.00 16 1010.5
20260906013304 85 215 11.0 20.0 0.00 0.00 0.00 16 1010.6
20260906012804 85 222 10.0 17.0 0.00 0.00 0.00 16 1010.6
20260906012306 85 206 10.0 16.0 0.00 0.00 0.00 15 1010.6
20260906011804 86 194 7.0 12.0 0.00 0.00 0.00 16 1010.6
20260906011304 86 203 11.0 17.0 0.00 0.00 0.00 16 1010.6
20260906010804 85 230 4.0 12.0 0.00 0.00 0.00 19 1010.8
20260906010303 86 194 2.0 5.0 0.00 0.00 0.00 21 1010.9
20260906005804 86 177 4.0 7.0 0.00 0.00 0.00 21 1010.8
20260906005306 86 170 6.0 12.0 0.00 0.00 0.00 20 1010.8
20260906003804 87 142 5.0 9.0 0.00 0.00 0.00 17 1010.7
20260906003303 87 134 4.0 9.0 0.00 0.00 0.00 17 1010.6
20260906002804 87 138 5.0 7.0 0.00 0.00 0.00 17 1010.7
20260906002306 87 148 6.0 10.0 0.00 0.00 0.00 18 1010.7
20260906001803 87 143 3.0 10.0 0.00 0.00 0.00 18 1010.7
20260906001304 87 140 6.0 12.0 0.00 0.00 0.00 16 1010.7
20260906000804 87 139 6.0 9.0 0.00 0.00 0.00 17 1010.7
20260906000304 87 171 5.0 10.0 0.00 0.00 0.00 17 1010.8
20260905235804 88 153 5.0 7.0 0.00 0.00 0.00 16 1010.8
20260905235306 88 152 5.0 8.0 0.00 0.00 0.00 17 1010.7
20260905234804 88 122 6.0 9.0 0.00 0.00 0.00 16 1010.8
20260905234304 88 145 3.0 7.0 0.00 0.00 0.00 17 1010.8
20260905233804 87 142 6.0 14.0 0.00 0.00 0.00 16 1010.9
20260905233304 87 130 6.0 12.0 0.00 0.00 0.00 16 1010.9
20260905232804 87 134 7.0 12.0 0.00 0.00 0.00 16 1010.9
20260905232306 87 139 5.0 12.0 0.00 0.00 0.00 14 1011.0
20260905231804 87 145 8.0 12.0 0.00 0.00 0.00 16 1011.1
20260905231304 87 126 8.0 12.0 0.00 0.00 0.00 15 1011.1
20260905230803 88 152 7.0 12.0 0.00 0.00 0.00 15 1011.1
20260905230303 87 147 4.0 10.0 0.00 0.00 0.00 15 1011.2
20260905225804 87 142 6.0 12.0 0.00 0.00 0.00 15 1011.2
20260905225305 87 148 7.0 12.0 0.00 0.00 0.00 15 1011.2
20260905224803 87 154 7.0 12.0 0.00 0.00 0.00 14 1011.1
20260905224304 87 163 6.0 10.0 0.00 0.00 0.00 16 1011.3
20260905223804 87 113 7.0 12.0 0.00 0.00 0.00 15 1011.3
20260905223303 87 131 7.0 12.0 0.00 0.00 0.00 15 1011.3
20260905222804 87 153 6.0 14.0 0.00 0.00 0.00 15 1011.3
20260905221804 87 147 9.0 12.0 0.00 0.00 0.00 15 1011.5
20260905221305 87 160 7.0 15.0 0.00 0.00 0.00 16 1011.5
20260905220305 87 166 6.0 15.0 0.00 0.00 0.00 16 1011.8
20260905215805 87 163 8.0 12.0 0.00 0.00 0.00 16 1011.8
20260905213304 86 136 7.0 13.0 0.00 0.00 0.00 17 1012.0
20260905212804 86 149 9.0 14.0 0.00 0.00 0.00 18 1012.1
20260905182804 81 131 11.0 22.0 0.00 0.00 0.00 23 1014.3
20260905182305 81 152 10.0 22.0 0.00 0.00 0.00 24 1014.5
20260905181805 81 148 9.0 22.0 0.00 0.00 0.00 24 1014.5
20260905181304 81 144 9.0 22.0 0.00 0.00 0.00 25 1014.6
20260905180304 80 154 10.0 22.0 0.00 0.00 0.00 24 1014.7
20260905174804 80 158 7.0 22.0 0.00 0.00 0.00 27 1014.7
20260905173804 80 151 10.0 22.0 0.00 0.00 0.00 26 1014.7
20260905172804 80 144 7.0 22.0 0.00 0.00 0.00 27 1014.7
20260905171805 79 160 9.0 22.0 0.00 0.00 0.00 27 1014.7
20260905171304 79 142 6.0 22.0 0.00 0.00 0.00 29 1014.7
20260905170805 79 143 9.0 22.0 0.00 0.00 0.00 27 1014.6
20260905170305 78 145 9.0 22.0 0.00 0.00 0.00 29 1014.6
20260905165804 78 138 11.0 22.0 0.00 0.00 0.00 29 1014.6
20260905165306 78 146 9.0 22.0 0.00 0.00 0.00 31 1015.0
20260905164804 77 149 7.0 22.0 0.00 0.00 0.00 33 1015.0
20260905164304 77 149 6.0 22.0 0.00 0.00 0.00 39 1015.0
20260905163804 76 170 5.0 22.0 0.00 0.00 0.00 40 1015.2
20260905163304 76 185 5.0 22.0 0.00 0.00 0.00 39 1015.2
20260905162804 75 138 4.0 22.0 0.00 0.00 0.00 40 1015.2
20260905162306 75 161 3.0 22.0 0.00 0.00 0.00 40 1014.8
20260905161804 74 155 4.0 22.0 0.00 0.00 0.00 42 1014.8
20260905161303 74 137 5.0 22.0 0.00 0.00 0.00 42 1014.9
20260905160804 74 140 6.0 22.0 0.00 0.00 0.00 42 1014.9
20260905160304 74 122 3.0 22.0 0.00 0.00 0.00 42 1014.9
20260905155306 73 128 3.0 22.0 0.00 0.00 0.00 45 1014.9
20260905154804 73 149 3.0 22.0 0.00 0.00 0.00 45 1014.9
20260905154304 73 120 3.0 22.0 0.00 0.00 0.00 49 1014.9
20260905153804 72 107 2.0 22.0 0.00 0.00 0.00 49 1015.0
20260905152804 72 131 1.0 22.0 0.00 0.00 0.00 51 1015.1
20260905151804 71 107 2.0 22.0 0.00 0.00 0.00 53 1015.0
20260905151304 71 98 2.0 22.0 0.00 0.00 0.00 54 1015.0
20260905150804 70 123 2.0 22.0 0.00 0.00 0.00 54 1015.0
20260905150304 70 117 2.0 22.0 0.00 0.00 0.00 54 1015.0
20260905145306 69 102 4.0 22.0 0.00 0.00 0.00 54 1014.9
20260905144304 68 92 3.0 22.0 0.00 0.00 0.00 56 1014.9
20260905143804 68 87 4.0 22.0 0.00 0.00 0.00 58 1015.0
20260905142803 67 64 2.0 22.0 0.00 0.00 0.00 63 1014.9
20260905142306 67 93 1.0 22.0 0.00 0.00 0.00 64 1014.8
20260905141804 66 93 1.0 22.0 0.00 0.00 0.00 64 1014.7
20260905141304 66 93 2.0 22.0 0.00 0.00 0.00 64 1014.7
20260905140305 65 151 2.0 22.0 0.00 0.00 0.00 64 1014.6
20260905135805 64 50 1.0 22.0 0.00 0.00 0.00 64 1014.1
20260905135306 64 46 1.0 22.0 0.00 0.00 0.00 65 1014.1
20260905134804 64 46 1.0 22.0 0.00 0.00 0.00 65 1014.1
20260905134304 64 46 1.0 22.0 0.00 0.00 0.00 64 1014.1
20260905133304 64 46 2.0 22.0 0.00 0.00 0.00 64 1014.1
20260905132804 64 46 2.0 22.0 0.00 0.00 0.00 65 1014.1
20260905131804 65 206 1.0 22.0 0.00 0.00 0.00 64 1013.9
20260905131304 65 209 3.0 22.0 0.00 0.00 0.00 62 1013.9
20260905130804 65 220 5.0 22.0 0.00 0.00 0.00 59 1013.9
20260905130304 65 218 5.0 22.0 0.00 0.00 0.00 55 1013.7
20260905125804 66 240 6.0 22.0 0.00 0.00 0.00 51 1013.7
20260905125306 67 224 6.0 22.0 0.00 0.00 0.00 48 1013.6
20260905124803 67 224 6.0 22.0 0.00 0.00 0.00 45 1013.6
20260905124304 68 249 6.0 22.0 0.00 0.00 0.00 43 1013.3
20260905123304 70 303 3.0 22.0 0.00 0.00 0.00 37 1013.3
20260905122804 71 281 2.0 22.0 0.00 0.00 0.00 32 1013.1
20260905122306 71 170 4.0 22.0 0.00 0.00 0.00 29 1013.1
20260905121804 71 150 3.0 22.0 0.00 0.00 0.00 29 1013.1
20260905121304 71 161 5.0 22.0 0.00 0.00 0.00 30 1013.0
20260905120804 71 155 5.0 22.0 0.00 0.00 0.00 31 1013.0
20260905120304 71 154 5.0 22.0 0.00 0.00 0.00 32 1013.0
20260905115804 71 157 5.0 22.0 0.00 0.00 0.00 31 1013.0
20260905115306 71 142 4.0 22.0 0.00 0.00 0.00 32 1013.0
20260905114304 71 136 6.0 22.0 0.00 0.00 0.00 31 1013.2
20260905113304 71 133 6.0 22.0 0.00 0.00 0.00 33 1013.2
20260905112804 71 115 5.0 22.0 0.00 0.00 0.00 34 1013.1
20260905111804 71 125 6.0 22.0 0.00 0.00 0.00 34 1013.0
20260905111304 71 124 8.0 22.0 0.00 0.00 0.00 35 1012.9
20260905110304 70 116 7.0 22.0 0.00 0.00 0.00 38 1012.9
20260905105804 70 122 6.0 22.0 0.00 0.00 0.00 39 1013.0
20260905104803 69 124 6.0 22.0 0.00 0.00 0.00 40 1013.0
20260905104304 70 127 5.0 22.0 0.00 0.00 0.00 40 1013.0
20260905103803 70 114 6.0 22.0 0.00 0.00 0.00 40 1012.9
20260905103303 70 124 5.0 22.0 0.00 0.00 0.00 39 1012.9
20260905102804 70 116 5.0 22.0 0.00 0.00 0.00 39 1012.9
20260905102306 70 115 6.0 22.0 0.00 0.00 0.00 40 1012.9
20260905101804 70 124 5.0 22.0 0.00 0.00 0.00 41 1012.9
20260905101304 70 131 5.0 22.0 0.00 0.00 0.00 41 1012.9
20260905100804 70 133 5.0 22.0 0.00 0.00 0.00 41 1012.8
20260905100304 70 133 6.0 22.0 0.00 0.00 0.00 41 1012.8
20260905095804 70 120 5.0 22.0 0.00 0.00 0.00 41 1012.8
20260905095306 70 142 5.0 22.0 0.00 0.00 0.00 41 1012.8
20260905094803 70 139 5.0 22.0 0.00 0.00 0.00 41 1012.6
20260905094304 70 141 6.0 22.0 0.00 0.00 0.00 41 1012.6
20260905093804 70 131 5.0 22.0 0.00 0.00 0.00 40 1012.7
20260905093304 70 122 8.0 22.0 0.00 0.00 0.00 41 1012.6
20260905092804 71 125 6.0 22.0 0.00 0.00 0.00 41 1012.5
20260905092306 71 132 8.0 22.0 0.00 0.00 0.00 42 1012.5
20260905091804 71 125 8.0 22.0 0.00 0.00 0.00 43 1012.4
20260905091303 71 121 6.0 22.0 0.00 0.00 0.00 42 1012.4
20260905090804 72 124 6.0 22.0 0.00 0.00 0.00 42 1012.4
20260905090304 72 134 6.0 22.0 0.00 0.00 0.00 41 1012.3
20260905085804 73 130 6.0 22.0 0.00 0.00 0.00 40 1012.3
20260905085306 73 137 7.0 22.0 0.00 0.00 0.00 39 1012.2
20260905084804 73 129 6.0 22.0 0.00 0.00 0.00 39 1012.2
20260905084303 73 148 7.0 22.0 0.00 0.00 0.00 38 1012.1
20260905083804 73 135 6.0 22.0 0.00 0.00 0.00 37 1012.1
20260905083303 73 136 7.0 22.0 0.00 0.00 0.00 37 1012.1
20260905082803 73 150 6.0 22.0 0.00 0.00 0.00 37 1012.0
20260905082307 74 148 6.0 22.0 0.00 0.00 0.00 37 1012.1
20260905081804 74 142 7.0 22.0 0.00 0.00 0.00 37 1012.0
20260905081304 74 148 6.0 22.0 0.00 0.00 0.00 37 1011.9
20260905080804 74 145 7.0 22.0 0.00 0.00 0.00 37 1011.9
20260905080304 74 147 7.0 22.0 0.00 0.00 0.00 36 1011.8
20260905075804 74 140 7.0 22.0 0.00 0.00 0.00 36 1011.8
20260905075306 75 135 9.0 22.0 0.00 0.00 0.00 36 1011.8
20260905074804 75 135 8.0 22.0 0.00 0.00 0.00 37 1011.7
20260905074303 75 137 10.0 22.0 0.00 0.00 0.00 37 1011.6
20260905073303 75 131 10.0 22.0 0.00 0.00 0.00 38 1011.4
20260905072803 75 131 10.0 22.0 0.00 0.00 0.00 38 1011.4
20260905072306 74 128 9.0 22.0 0.00 0.00 0.00 38 1011.3
20260905071804 74 159 7.0 22.0 0.00 0.00 0.00 39 1011.3
20260905071303 74 133 9.0 22.0 0.00 0.00 0.00 40 1011.3
20260905070804 74 118 9.0 22.0 0.00 0.00 0.00 40 1011.2
20260905070304 74 126 7.0 22.0 0.00 0.00 0.00 41 1011.2
20260905065804 74 138 8.0 22.0 0.00 0.00 0.00 41 1011.2
20260905065306 74 120 7.0 22.0 0.00 0.00 0.00 41 1011.1
20260905064804 75 125 7.0 22.0 0.00 0.00 0.00 41 1011.1
20260905064303 75 120 7.0 22.0 0.00 0.00 0.00 40 1011.0
20260905063804 75 131 6.0 22.0 0.00 0.00 0.00 37 1010.7
20260905063304 75 127 6.0 22.0 0.00 0.00 0.00 36 1010.7
20260905062804 75 132 5.0 22.0 0.00 0.00 0.00 37 1010.7
20260905062306 76 149 5.0 22.0 0.00 0.00 0.00 36 1010.6
20260905061803 76 170 4.0 7.0 0.00 0.00 0.00 37 1010.6
20260905061303 76 165 4.0 22.0 0.00 0.00 0.00 36 1010.4
20260905060804 77 193 6.0 22.0 0.00 0.00 0.00 35 1010.4
20260905060304 76 205 5.0 22.0 0.00 0.00 0.00 37 1010.4
20260905055803 76 179 7.0 22.0 0.00 0.00 0.00 35 1010.1
20260905055306 76 157 6.0 22.0 0.00 0.00 0.00 36 1010.1
20260905054804 76 172 6.0 22.0 0.00 0.00 0.00 35 1010.1
20260905054304 77 158 6.0 22.0 0.00 0.00 0.00 35 1010.1
20260905053304 77 166 5.0 22.0 0.00 0.00 0.00 34 1010.1
20260905052306 77 180 6.0 22.0 0.00 0.00 0.00 34 1009.9
20260905051804 77 178 6.0 22.0 0.00 0.00 0.00 34 1009.9
20260905051304 77 177 8.0 22.0 0.00 0.00 0.00 33 1009.9
20260905050803 77 149 5.0 22.0 0.00 0.00 0.00 35 1009.9
20260905045805 76 137 8.0 22.0 0.00 0.00 0.00 35 1009.8
20260905045306 76 125 7.0 22.0 0.00 0.00 0.00 37 1009.9
20260905044305 76 157 5.0 22.0 0.00 0.00 0.00 38 1009.9
20260905043805 77 139 7.0 22.0 0.00 0.00 0.00 37 1009.9
20260905043305 77 122 4.0 22.0 0.00 0.00 0.00 34 1009.8
20260905042805 77 111 4.0 22.0 0.00 0.00 0.00 34 1009.8
20260905041305 79 126 4.0 22.0 0.00 0.00 0.00 28 1009.5
20260905040805 79 198 2.0 22.0 0.00 0.00 0.00 24 1009.3
20260905040306 79 142 1.0 22.0 0.00 0.00 0.00 23 1009.3